| time (UTC) | temp F | wind direction | speed knots | gust knots | rain 1hr in | rain 24hr in | rain mn in | humidity % | barometer mb |
| 20260903060025 | 67 | 172 | 2.6 | 7.0 | 0.00 | 0.00 | 0.00 | 86 | 1016.2 |
| 20260903054617 | 66 | 160 | 0.0 | 7.0 | 0.00 | 0.00 | 0.00 | 85 | 1016.7 |
| 20260903053037 | 66 | 156 | 1.7 | 6.1 | 0.00 | 0.00 | 0.00 | 86 | 1016.9 |
| 20260903051505 | 66 | 148 | 1.7 | 6.1 | 0.00 | 0.00 | 0.00 | 86 | 1016.9 |
| 20260903050107 | 66 | 202 | 1.7 | 4.3 | 0.00 | 0.00 | 0.00 | 86 | 1017.3 |
| 20260903044512 | 66 | 155 | 1.7 | 6.1 | 0.00 | 0.00 | 0.00 | 85 | 1017.2 |
| 20260903033104 | 66 | 207 | 2.6 | 8.7 | 0.00 | 0.00 | 0.00 | 79 | 1017.3 |
| 20260903031525 | 66 | 188 | 1.7 | 8.7 | 0.00 | 0.00 | 0.00 | 77 | 1017.8 |
| 20260903030110 | 66 | 150 | 2.6 | 7.8 | 0.00 | 0.00 | 0.00 | 81 | 1017.8 |
| 20260903024536 | 66 | 193 | 1.7 | 6.1 | 0.00 | 0.00 | 0.00 | 82 | 1017.8 |
| 20260903023003 | 67 | 207 | 1.7 | 7.0 | 0.00 | 0.00 | 0.00 | 80 | 1017.6 |
| 20260903021540 | 67 | 157 | 2.6 | 9.6 | 0.00 | 0.00 | 0.00 | 80 | 1017.8 |
| 20260903020009 | 67 | 200 | 2.6 | 7.8 | 0.00 | 0.00 | 0.00 | 79 | 1018.0 |
| 20260903014555 | 67 | 201 | 2.6 | 7.0 | 0.00 | 0.00 | 0.00 | 77 | 1018.4 |
| 20260903013022 | 67 | 141 | 1.7 | 7.8 | 0.00 | 0.00 | 0.00 | 76 | 1018.3 |
| 20260903011609 | 67 | 178 | 2.6 | 8.7 | 0.00 | 0.00 | 0.00 | 75 | 1018.4 |
| 20260903010029 | 67 | 163 | 0.9 | 10.4 | 0.00 | 0.00 | 0.00 | 77 | 1018.4 |
| 20260903004554 | 67 | 197 | 3.5 | 9.6 | 0.00 | 0.00 | 0.00 | 77 | 1018.4 |
| 20260903003020 | 67 | 154 | 1.7 | 7.0 | 0.00 | 0.00 | 0.00 | 78 | 1018.2 |
| 20260903001548 | 67 | 133 | 2.6 | 7.8 | 0.00 | 0.00 | 0.00 | 76 | 1018.6 |
| 20260903000019 | 67 | 189 | 1.7 | 8.7 | 0.00 | 0.00 | 0.00 | 77 | 1018.7 |
| 20260902234557 | 68 | 161 | 1.7 | 7.0 | 0.00 | 0.00 | 0.00 | 78 | 1018.9 |
| 20260902233033 | 68 | 193 | 1.7 | 7.8 | 0.00 | 0.00 | 0.00 | 77 | 1018.8 |
| 20260902231506 | 68 | 160 | 2.6 | 11.3 | 0.00 | 0.00 | 0.00 | 76 | 1018.9 |
| 20260902230041 | 68 | 164 | 1.7 | 7.8 | 0.00 | 0.00 | 0.00 | 74 | 1019.1 |
| 20260902224512 | 68 | 79 | 2.6 | 9.6 | 0.00 | 0.00 | 0.00 | 74 | 1019.0 |
| 20260902223101 | 69 | 162 | 3.5 | 10.4 | 0.00 | 0.03 | 0.00 | 73 | 1019.0 |
| 20260902221527 | 69 | 89 | 2.6 | 7.8 | 0.00 | 0.03 | 0.00 | 71 | 1018.9 |
| 20260902220104 | 69 | 163 | 3.5 | 11.3 | 0.00 | 0.03 | 0.00 | 72 | 1018.9 |
| 20260902214523 | 69 | 113 | 2.6 | 8.7 | 0.00 | 0.03 | 0.00 | 72 | 1018.7 |
| 20260902213059 | 69 | 136 | 2.6 | 8.7 | 0.00 | 0.07 | 0.00 | 72 | 1019.1 |
| 20260902211510 | 70 | 143 | 3.5 | 9.6 | 0.00 | 0.07 | 0.00 | 71 | 1019.2 |
| 20260902210043 | 70 | 153 | 2.6 | 8.7 | 0.00 | 0.07 | 0.00 | 72 | 1019.1 |
| 20260902204523 | 70 | 133 | 3.5 | 9.6 | 0.00 | 0.07 | 0.00 | 71 | 1019.1 |
| 20260902203056 | 71 | 174 | 2.6 | 7.8 | 0.00 | 0.08 | 0.00 | 72 | 1018.9 |
| 20260902201534 | 71 | 163 | 4.3 | 8.7 | 0.00 | 0.08 | 0.00 | 71 | 1019.1 |
| 20260902200114 | 72 | 93 | 2.6 | 10.4 | 0.00 | 0.08 | 0.00 | 68 | 1019.4 |
| 20260902194528 | 72 | 124 | 3.5 | 9.6 | 0.00 | 0.08 | 0.00 | 69 | 1019.5 |
| 20260902193112 | 72 | 193 | 5.2 | 13.9 | 0.00 | 0.10 | 0.00 | 68 | 1019.4 |
| 20260902191543 | 71 | 99 | 3.5 | 12.2 | 0.00 | 0.10 | 0.00 | 71 | 1019.4 |
| 20260902190007 | 72 | 268 | 4.3 | 11.3 | 0.00 | 0.10 | 0.00 | 70 | 1019.4 |
| 20260902184550 | 72 | 175 | 3.5 | 13.0 | 0.00 | 0.10 | 0.00 | 70 | 1019.3 |
| 20260902183109 | 73 | 129 | 2.6 | 13.0 | 0.00 | 0.26 | 0.00 | 70 | 1019.2 |
| 20260902181538 | 73 | 124 | 3.5 | 9.6 | 0.00 | 0.26 | 0.00 | 70 | 1019.7 |
| 20260902180132 | 72 | 129 | 4.3 | 10.4 | 0.00 | 0.26 | 0.00 | 70 | 1019.6 |
| 20260902174537 | 73 | 185 | 3.5 | 12.2 | 0.00 | 0.26 | 0.00 | 71 | 1019.5 |
| 20260902173113 | 73 | 77 | 4.3 | 10.4 | 0.00 | 0.26 | 0.00 | 70 | 1019.4 |
| 20260902171542 | 72 | 141 | 3.5 | 10.4 | 0.00 | 0.26 | 0.00 | 71 | 1019.7 |
| 20260902170015 | 72 | 96 | 1.7 | 11.3 | 0.00 | 0.26 | 0.00 | 72 | 1019.7 |
| 20260902164557 | 73 | 124 | 2.6 | 7.8 | 0.00 | 0.26 | 0.00 | 71 | 1019.9 |
| 20260902163016 | 73 | 197 | 2.6 | 7.0 | 0.00 | 0.26 | 0.00 | 70 | 1020.1 |
| 20260902161554 | 73 | 112 | 2.6 | 7.8 | 0.00 | 0.26 | 0.00 | 68 | 1020.2 |
| 20260902160021 | 72 | 141 | 2.6 | 7.8 | 0.00 | 0.26 | 0.00 | 70 | 1020.4 |
| 20260902154559 | 73 | 83 | 2.6 | 7.0 | 0.00 | 0.26 | 0.00 | 71 | 1020.3 |
| 20260902153027 | 72 | 124 | 1.7 | 8.7 | 0.00 | 0.28 | 0.00 | 72 | 1020.3 |
| 20260902151609 | 72 | 119 | 5.2 | 8.7 | 0.00 | 0.28 | 0.00 | 70 | 1020.2 |
| 20260902150034 | 72 | 79 | 2.6 | 8.7 | 0.00 | 0.28 | 0.00 | 71 | 1020.4 |
| 20260902144511 | 71 | 179 | 1.7 | 9.6 | 0.00 | 0.28 | 0.00 | 73 | 1019.8 |
| 20260902143041 | 71 | 114 | 3.5 | 8.7 | 0.00 | 0.28 | 0.00 | 72 | 1019.8 |
| 20260902141505 | 71 | 87 | 3.5 | 8.7 | 0.00 | 0.28 | 0.00 | 76 | 1019.8 |
| 20260902140035 | 70 | 90 | 4.3 | 9.6 | 0.00 | 0.28 | 0.00 | 77 | 1019.5 |
| 20260902134608 | 69 | 106 | 3.5 | 8.7 | 0.00 | 0.28 | 0.00 | 80 | 1019.5 |
| 20260902133027 | 68 | 70 | 2.6 | 7.0 | 0.00 | 0.28 | 0.00 | 81 | 1019.4 |
| 20260902131559 | 67 | 59 | 2.6 | 7.8 | 0.00 | 0.28 | 0.00 | 81 | 1019.4 |
| 20260902130021 | 67 | 62 | 0.9 | 7.8 | 0.00 | 0.28 | 0.00 | 81 | 1019.5 |
| 20260902124611 | 67 | 83 | 2.6 | 7.8 | 0.00 | 0.28 | 0.00 | 81 | 1019.4 |
| 20260902123041 | 67 | 119 | 3.5 | 9.6 | 0.00 | 0.28 | 0.00 | 81 | 1019.5 |
| 20260902121504 | 67 | 115 | 4.3 | 8.7 | 0.00 | 0.28 | 0.00 | 81 | 1019.8 |
| 20260902120046 | 67 | 53 | 4.3 | 9.6 | 0.00 | 0.28 | 0.00 | 79 | 1019.9 |
| 20260902114516 | 67 | 59 | 3.5 | 9.6 | 0.00 | 0.28 | 0.00 | 80 | 1019.7 |
| 20260902113058 | 67 | 91 | 3.5 | 8.7 | 0.00 | 0.28 | 0.00 | 81 | 1019.5 |
| 20260902110118 | 66 | 28 | 3.5 | 8.7 | 0.00 | 0.28 | 0.00 | 81 | 1019.1 |
| 20260902104527 | 66 | 119 | 4.3 | 10.4 | 0.00 | 0.28 | 0.00 | 82 | 1018.9 |
| 20260902103055 | 66 | 175 | 3.5 | 9.6 | 0.00 | 0.28 | 0.00 | 83 | 1019.0 |
| 20260902101611 | 66 | 78 | 3.5 | 9.6 | 0.00 | 0.28 | 0.00 | 82 | 1018.8 |
| 20260902100057 | 65 | 95 | 2.6 | 10.4 | 0.00 | 0.28 | 0.00 | 83 | 1018.9 |
| 20260902094506 | 65 | 98 | 3.5 | 8.7 | 0.00 | 0.28 | 0.00 | 84 | 1018.7 |
| 20260902093038 | 66 | 93 | 2.6 | 8.7 | 0.00 | 0.28 | 0.00 | 84 | 1018.4 |
| 20260902091509 | 65 | 65 | 4.3 | 9.6 | 0.00 | 0.28 | 0.00 | 88 | 1018.4 |
| 20260902090029 | 64 | 77 | 3.5 | 7.8 | 0.00 | 0.28 | 0.00 | 92 | 1018.6 |
| 20260902084624 | 64 | 19 | 2.6 | 5.2 | 0.00 | 0.28 | 0.00 | 92 | 1018.4 |
| 20260902083024 | 64 | 40 | 2.6 | 7.8 | 0.00 | 0.28 | 0.00 | 91 | 1018.2 |
| 20260902081607 | 65 | 39 | 4.3 | 7.0 | 0.00 | 0.28 | 0.00 | 90 | 1018.1 |
| 20260902080032 | 66 | 46 | 3.5 | 11.3 | 0.00 | 0.28 | 0.00 | 86 | 1018.3 |
| 20260902074547 | 66 | 93 | 3.5 | 9.6 | 0.00 | 0.28 | 0.00 | 87 | 1018.3 |
| 20260902073009 | 66 | 83 | 4.3 | 12.2 | 0.00 | 0.28 | 0.00 | 86 | 1018.1 |
| 20260902071547 | 66 | 87 | 5.2 | 10.4 | 0.00 | 0.28 | 0.00 | 85 | 1017.8 |
| 20260902070016 | 66 | 76 | 4.3 | 10.4 | 0.00 | 0.28 | 0.00 | 83 | 1017.8 |
| 20260902064610 | 64 | 56 | 3.5 | 10.4 | 0.00 | 0.28 | 0.00 | 90 | 1018.0 |
| 20260902063037 | 64 | 77 | 2.6 | 5.2 | 0.00 | 0.28 | 0.00 | 92 | 1018.0 |
| 20260902061611 | 64 | 74 | 3.5 | 7.8 | 0.00 | 0.28 | 0.00 | 91 | 1018.1 |